Tracy, MN

8:08 AM CDT on September 21, 2017 (GMT -0500)
Tracy

Weather History for KTKC - May, 2013

Change the Weather History Date:

Thursday, May 2, 2013

  Actual Average (KMML) Record (KMML)
Temperature  
Mean Temperature 40 °F -  
Max Temperature 47 °F 62 °F 96 °F (1959)
Min Temperature 32 °F 38 °F 22 °F (1967)
Degree Days  
Heating Degree Days 26    
Moisture  
Dew Point 25 °F    
Average Humidity 61    
Maximum Humidity 80    
Minimum Humidity 40    
Precipitation  
Precipitation 0.00 in - - ()
Sea Level Pressure  
Sea Level Pressure 30.53 in    
Wind  
Wind Speed 17 mph (North)    
Max Wind Speed 25 mph    
Max Gust Speed 34 mph    
Visibility 10 miles    
Events      
Averages and records for this station are not official NWS values.
T = Trace of Precipitation, MM = Missing Value Source: NWS Daily Summary

Daily Weather History Graph

Daily Weather History Graph

Search for Another Location

Airport or City:

Trip Planner

Search our weather history database for the weather conditions in past years. The results will help you decide how hot, cold, wet, or windy it might be!

Date:

Astronomy

May. 02, 2013 Rise Set
Actual Time 6:11 AM CDT 8:27 PM CDT
Civil Twilight 5:39 AM CDT 8:59 PM CDT
Nautical Twilight 5:00 AM CDT 9:39 PM CDT
Astronomical Twilight 4:16 AM CDT 10:24 PM CDT
Moon 2:15 AM CDT (5/2) 1:02 PM CDT (5/2)
Length of Visible Light 15h 20m
Length of Day
14h 16m
Waning Gibbous, 47% of the Moon is Illuminated
May 2
Waning Gibbous
May 9
New
May 17
First Quarter
May 24
Full
May 31
Last Quarter

Hourly Weather History & Observations

Time (CDT) Temp. Windchill Dew Point Humidity Pressure Visibility Wind Dir Wind Speed Gust Speed Precip Events Conditions
12:14 AM 36.0 °F 25.6 °F 28.4 °F 74% 30.51 in 10.0 mi North 18.4 mph - N/A   Clear
12:34 AM 35.8 °F 26.1 °F 28.4 °F 75% 30.52 in 10.0 mi North 16.1 mph - N/A   Clear
12:54 AM 35.6 °F 25.2 °F 27.9 °F 73% 30.52 in 10.0 mi North 18.4 mph 23.0 mph N/A   Clear
1:14 AM 34.7 °F 24.3 °F 27.5 °F 75% 30.53 in 10.0 mi North 17.3 mph 21.9 mph N/A   Clear
1:34 AM 34.7 °F 25.5 °F 27.5 °F 75% 30.54 in 10.0 mi North 13.8 mph 19.6 mph N/A   Clear
1:54 AM 34.3 °F 24.6 °F 27.3 °F 76% 30.54 in 10.0 mi North 15.0 mph 21.9 mph N/A   Clear
2:14 AM 34.9 °F 23.3 °F 25.2 °F 68% 30.55 in 10.0 mi North 21.9 mph 27.6 mph N/A   Clear
2:33 AM 34.7 °F 24.7 °F 25.0 °F 68% 30.55 in 10.0 mi North 16.1 mph 24.2 mph N/A   Clear
2:53 AM 34.3 °F 23.9 °F 25.0 °F 69% 30.54 in 10.0 mi North 17.3 mph 23.0 mph N/A   Scattered Clouds
3:13 AM 34.2 °F 23.6 °F 25.2 °F 70% 30.54 in 10.0 mi North 17.3 mph - N/A   Scattered Clouds
3:34 AM 34.2 °F 24.4 °F 24.8 °F 69% 30.54 in 10.0 mi North 15.0 mph - N/A   Overcast
3:54 AM 34.0 °F 24.2 °F 24.8 °F 69% 30.55 in 10.0 mi North 15.0 mph - N/A   Mostly Cloudy
4:13 AM 33.8 °F 24.3 °F 24.8 °F 70% 30.54 in 10.0 mi North 13.8 mph - N/A   Scattered Clouds
4:33 AM 33.3 °F 24.1 °F 24.8 °F 71% 30.55 in 10.0 mi North 12.7 mph - N/A   Clear
4:53 AM 33.3 °F 24.6 °F 25.3 °F 73% 30.54 in 10.0 mi North 11.5 mph - N/A   Clear
5:13 AM 32.9 °F 25.3 °F 26.2 °F 76% 30.55 in 10.0 mi NNW 9.2 mph - N/A   Clear
5:34 AM 32.2 °F 24.4 °F 26.4 °F 79% 30.56 in 10.0 mi NNW 9.2 mph - N/A   Clear
5:54 AM 32.0 °F 23.6 °F 26.4 °F 80% 30.56 in 10.0 mi North 10.4 mph - N/A   Scattered Clouds
6:13 AM 32.0 °F 23.0 °F 26.4 °F 80% 30.57 in 10.0 mi NNW 11.5 mph - N/A   Scattered Clouds
6:33 AM 32.0 °F 23.6 °F 26.4 °F 80% 30.58 in 10.0 mi NNW 10.4 mph - N/A   Scattered Clouds
6:53 AM 32.0 °F 24.2 °F 26.2 °F 79% 30.58 in 10.0 mi NNW 9.2 mph - N/A   Scattered Clouds
7:13 AM 32.0 °F 23.6 °F 26.1 °F 79% 30.58 in 10.0 mi NNW 10.4 mph - N/A   Mostly Cloudy
7:33 AM 32.2 °F 22.7 °F 26.2 °F 79% 30.59 in 10.0 mi NNW 12.7 mph - N/A   Scattered Clouds
7:53 AM 32.7 °F 23.4 °F 26.2 °F 77% 30.59 in 10.0 mi NNW 12.7 mph 17.3 mph N/A   Clear
8:14 AM 33.3 °F 23.2 °F 26.2 °F 75% 30.60 in 10.0 mi NNW 15.0 mph - N/A   Clear
8:34 AM 33.8 °F 23.9 °F 26.1 °F 73% 30.60 in 10.0 mi NNW 15.0 mph 20.7 mph N/A   Clear
8:53 AM 34.7 °F 24.7 °F 25.7 °F 70% 30.60 in 10.0 mi North 16.1 mph 19.6 mph N/A   Clear
9:13 AM 35.8 °F 26.1 °F 25.9 °F 67% 30.61 in 10.0 mi North 16.1 mph 23.0 mph N/A   Clear
9:33 AM 36.9 °F 26.8 °F 26.1 °F 65% 30.60 in 10.0 mi North 18.4 mph 24.2 mph N/A   Clear
9:53 AM 37.2 °F 27.0 °F 25.9 °F 64% 30.60 in 10.0 mi North 19.6 mph 26.5 mph N/A   Clear
10:14 AM 38.1 °F 27.6 °F 26.6 °F 63% 30.59 in 10.0 mi North 21.9 mph 27.6 mph N/A   Clear
10:34 AM 40.1 °F 30.2 °F 27.3 °F 60% 30.59 in 10.0 mi North 21.9 mph 28.8 mph N/A   Clear
10:53 AM 39.9 °F 29.2 °F 26.2 °F 58% 30.59 in 10.0 mi North 25.3 mph 29.9 mph N/A   Clear
11:13 AM 41.0 °F 31.6 °F 26.4 °F 56% 30.59 in 10.0 mi North 20.7 mph 31.1 mph N/A   Clear
11:34 AM 42.1 °F 32.3 °F 26.6 °F 54% 30.58 in 10.0 mi North 24.2 mph 29.9 mph N/A   Scattered Clouds
11:54 AM 41.9 °F 33.4 °F 25.9 °F 53% 30.58 in 10.0 mi NNW 18.4 mph 29.9 mph N/A   Scattered Clouds
12:13 PM 42.8 °F 33.3 °F 25.3 °F 50% 30.56 in 10.0 mi North 24.2 mph 29.9 mph N/A   Scattered Clouds
12:33 PM 42.6 °F 33.3 °F 25.2 °F 50% 30.56 in 10.0 mi NNW 23.0 mph 32.2 mph N/A   Clear
12:54 PM 43.5 °F 34.0 °F 24.3 °F 47% 30.55 in 10.0 mi North 25.3 mph 33.4 mph N/A   Clear
1:13 PM 43.9 °F 35.2 °F 24.4 °F 46% 30.55 in 10.0 mi North 21.9 mph 34.5 mph N/A   Clear
1:33 PM 45.3 °F 36.7 °F 24.1 °F 43% 30.53 in 10.0 mi North 24.2 mph 29.9 mph N/A   Clear
1:53 PM 45.7 °F 37.6 °F 24.6 °F 44% 30.53 in 10.0 mi North 21.9 mph 33.4 mph N/A   Clear
2:13 PM 46.2 °F 38.5 °F 24.1 °F 42% 30.53 in 10.0 mi North 20.7 mph 29.9 mph N/A   Clear
2:33 PM 47.3 °F - 25.7 °F 43% 30.52 in 10.0 mi North 21.9 mph 29.9 mph N/A   Clear
2:53 PM 46.2 °F 37.9 °F 23.0 °F 40% 30.51 in 10.0 mi North 24.2 mph 28.8 mph N/A   Clear
3:14 PM 46.8 °F - 24.6 °F 42% 30.51 in 10.0 mi North 19.6 mph 26.5 mph N/A   Clear
3:33 PM 46.8 °F - 24.3 °F 41% 30.50 in 10.0 mi North 24.2 mph 33.4 mph N/A   Clear
3:53 PM 46.6 °F - 23.4 °F 40% 30.50 in 10.0 mi North 21.9 mph 29.9 mph N/A   Clear
4:14 PM 47.1 °F - 24.3 °F 41% 30.49 in 10.0 mi North 21.9 mph 27.6 mph N/A   Clear
4:34 PM 46.8 °F - 24.8 °F 42% 30.48 in 10.0 mi North 20.7 mph 27.6 mph N/A   Clear
4:53 PM 46.6 °F - 24.4 °F 42% 30.47 in 10.0 mi North 20.7 mph 29.9 mph N/A   Clear
5:13 PM 46.8 °F - 23.9 °F 41% 30.47 in 10.0 mi North 21.9 mph 29.9 mph N/A   Clear
5:33 PM 46.8 °F - 24.3 °F 41% 30.47 in 10.0 mi North 18.4 mph 29.9 mph N/A   Clear
5:54 PM 45.9 °F 38.8 °F 24.1 °F 42% 30.47 in 10.0 mi North 17.3 mph 26.5 mph N/A   Clear
6:14 PM 45.7 °F 37.6 °F 24.6 °F 44% 30.47 in 10.0 mi North 21.9 mph 28.8 mph N/A   Clear
6:34 PM 45.1 °F 37.1 °F 23.7 °F 43% 30.46 in 10.0 mi North 20.7 mph 26.5 mph N/A   Clear
6:54 PM 44.6 °F 36.6 °F 24.4 °F 45% 30.46 in 10.0 mi North 19.6 mph 25.3 mph N/A   Clear
7:14 PM 43.9 °F 35.9 °F 25.0 °F 47% 30.45 in 10.0 mi North 18.4 mph 26.5 mph N/A   Clear
7:33 PM 43.2 °F 35.0 °F 24.3 °F 47% 30.46 in 10.0 mi North 18.4 mph 21.9 mph N/A   Clear
7:54 PM 42.4 °F 33.8 °F 24.3 °F 49% 30.46 in 10.0 mi North 19.6 mph - N/A   Clear
8:13 PM 41.2 °F 32.4 °F 24.1 °F 51% 30.46 in 10.0 mi North 18.4 mph 24.2 mph N/A   Clear
8:33 PM 40.5 °F 32.5 °F 24.8 °F 54% 30.46 in 10.0 mi North 15.0 mph 19.6 mph N/A   Clear
8:53 PM 39.4 °F 32.7 °F 24.8 °F 56% 30.47 in 10.0 mi North 10.4 mph 18.4 mph N/A   Clear
9:14 PM 38.3 °F 31.4 °F 25.2 °F 59% 30.47 in 10.0 mi NNW 10.4 mph - N/A   Clear
9:33 PM 37.4 °F 30.8 °F 25.7 °F 63% 30.47 in 10.0 mi NNW 9.2 mph - N/A   Clear
9:53 PM 37.2 °F 29.1 °F 25.5 °F 63% 30.47 in 10.0 mi NNW 12.7 mph 17.3 mph N/A   Clear
10:13 PM 36.1 °F 28.2 °F 25.5 °F 65% 30.47 in 10.0 mi NNW 11.5 mph 17.3 mph N/A   Clear
10:34 PM 35.6 °F 27.5 °F 25.5 °F 67% 30.47 in 10.0 mi NNW 11.5 mph - N/A   Clear
10:54 PM 34.7 °F 26.4 °F 25.5 °F 69% 30.47 in 10.0 mi NNW 11.5 mph - N/A   Clear
11:13 PM 34.2 °F 26.2 °F 25.7 °F 71% 30.46 in 10.0 mi NNW 10.4 mph - N/A   Clear
11:33 PM 33.3 °F 25.1 °F 25.5 °F 73% 30.45 in 10.0 mi NNW 10.4 mph - N/A   Clear
11:53 PM 32.9 °F 25.3 °F 25.5 °F 74% 30.44 in 10.0 mi NNW 9.2 mph - N/A   Clear